Regional Weather Roundup
Issued by NWS

Home | Current Version | Previous Version | Graphics & Text | Print | Product List | Glossary On
Versions: 1 2 3 4 5 6 7 8 9 10 11 12 13 14 15 16 17 18 19 20 21 22 23 24 25 26 27 28 29 30 31 32 33 34 35 36 37 38 39 40 41 42 43 44 45 46 47 48 49 50
000
ASUS45 KCYS 121410
RWRWY

WYOMING REGIONAL WEATHER ROUNDUP
NATIONAL WEATHER SERVICE CHEYENNE WY
700 AM MST FRI FEB 12 2016

NOTE:  "FAIR" INDICATES FEW OR NO CLOUDS BELOW 12,000 FEET
WITH NO SIGNIFICANT WEATHER AND/OR OBSTRUCTIONS TO VISIBILITY.

WYZ001-121500-
YELLOWSTONE NATIONAL PARK

CITY           SKY/WX    TMP DP  RH WIND       PRES   REMARKS
LK YELLOWSTONE   N/A     27  25  92 CALM      30.36S
W YELLOWSTONE  NOT AVBL

$$
WYZ002>013-054>058-071-098>099-121500-
NORTHERN WYOMING

CITY           SKY/WX    TMP DP  RH WIND       PRES   REMARKS
JACKSON        FOG       23  23 100 CALM      30.36S VSB 1/4
CODY           FAIR      30  19  64 CALM      30.25R
GREYBULL       CLOUDY    35  29  78 CALM      30.25S
WORLAND        MOCLDY    31  27  85 S5        30.25S WCI  26
SHERIDAN       CLOUDY    30  28  93 CALM      30.28S
BUFFALO        CLOUDY    34  26  72 S5        30.30R WCI  30
GILLETTE       FOG       28  27  96 NE5       30.33R VSB 1/2 WCI  23
HULETT         CLOUDY    32  28  86 CALM      30.33R
NEWCASTLE      FAIR      27  27 100 W6        30.29R WCI  20

$$
WYZ014>020-022>026-101>103-121500-
CENTRAL WYOMING

CITY           SKY/WX    TMP DP  RH WIND       PRES   REMARKS
BIG PINEY      FAIR      18  14  84 N5        30.37S WCI  11
PINEDALE         N/A     21  21 100 W5        30.37S WCI  15
DUBOIS         FAIR      36  28  75 NW17G24   30.26S WCI  25
LANDER         FAIR      33  24  69 CALM      30.24S
RIVERTON       FAIR      29  24  82 NE6       30.26S WCI  23
CASPER         CLOUDY    31  26  82 N7        30.28R WCI  24
DOUGLAS        CLOUDY    31  27  85 CALM      30.31R

$$
WYZ021-027>030-104>119-121500-
SOUTHERN WYOMING

CITY           SKY/WX    TMP DP  RH WIND       PRES   REMARKS
EVANSTON       FAIR      31  14  49 S6        30.37S WCI  25
FORT BRIDGER   SUNNY     32  19  59 W9        30.39R WCI  24
ROCK SPRINGS   FAIR      30  17  58 W9        30.37R WCI  22
DIXON          PTSUNNY   24  18  76 CALM      30.42R
RAWLINS        MOCLDY    36  19  50 SW18      30.32S WCI  26
SARATOGA       CLOUDY    39  21  48 NW7       30.34R WCI  34
LARAMIE        MOCLDY    37  22  54 SW20      30.28S WCI  27
CHEYENNE       CLOUDY    34  26  72 SW3       30.28S
TORRINGTON     FAIR      31  26  82 CALM      30.29R
PINE BLUFFS    CLOUDY    30  27  86 SW3       30.30S

$$




USA.gov is the U.S. government's official web portal to all federal, state and local government web resources and services.